[[{"header":{"parameterUnit":"m.s-1","parameterCategory":1,"la1":30.2991,"la2":30.254,"lo1":-89.0895,"lo2":-89.0444,"dy":0.0017,"dx":0.0017,"nx":28,"ny":28,"refTime":"2024-05-15T21:00:00:Z","depth":0,"parameterNumber":2,"parameterNumberName":"U-component_of_WINDS"},"data":[0,0,0,0,0,0,0,0,0,0,0,0,0,0,0,0,0,0,0,0,0,0,0,0,0,0,0,0,0,0,0,0,0,0,0,0,0,0,0,0,0,0,0,0,0,0,0,0,0,0,0,0,0,0,0,0,0,0,-0.9475,-0.9476,0,-0.9533,-0.9534,-0.9535,-0.9583,-0.9584,-0.9584,-0.9585,-0.9643,-0.9644,-0.9645,0,0,0,0,0,0,0,0,0,0,0,0,0,-0.9406,-0.9407,-0.9475,-0.9476,-0.9477,-0.9533,-0.9534,-0.9535,-0.9583,-0.9584,-0.9584,-0.9585,-0.9643,-0.9644,-0.9645,0,0,0,0,0,0,0,0,0,0,0,0,0,-0.9447,-0.9407,-0.9475,-0.9508,-0.9511,-0.9533,-0.9534,-0.9535,-0.9583,-0.9584,-0.9585,-0.9585,-0.9642,-0.9644,-0.9646,-0.9639,0,0,-0.965,-0.9651,0,0,0,0,0,0,0,0,-0.9445,-0.945,-0.9502,-0.9505,-0.9509,-0.9552,-0.9531,-0.957,-0.9583,-0.9556,-0.9585,-0.9586,-0.9612,-0.9616,-0.9625,-0.9642,-0.9645,-0.9651,-0.9651,-0.9652,-0.9653,0,0,0,0,0,0,0,-0.9442,-0.9447,-0.9498,-0.9503,-0.9507,-0.9519,-0.9526,-0.9539,-0.9579,-0.9558,-0.9562,-0.9568,-0.9614,-0.9624,-0.9627,-0.9646,-0.965,-0.9652,-0.9653,-0.9653,-0.9661,-0.966,0,0,0,0,0,0,-0.9434,-0.9445,-0.9496,-0.95,-0.9478,-0.952,-0.9527,-0.9537,-0.9579,-0.9586,-0.9567,-0.957,-0.9621,-0.9625,-0.9629,-0.9625,-0.9652,-0.9654,-0.9655,-0.9662,-0.9661,-0.966,0,0,0,0,0,0,-0.9432,-0.9438,-0.9494,-0.9473,-0.9481,-0.952,-0.9531,-0.9538,-0.9548,-0.9586,-0.9593,-0.957,-0.9621,-0.9627,-0.9637,-0.9628,-0.9654,-0.9656,-0.9663,-0.9661,-0.966,-0.9617,0,0,0,0,0,0,-0.943,-0.9437,-0.9436,-0.9473,-0.9482,-0.95,-0.9531,-0.9539,-0.955,-0.9555,-0.959,-0.9596,-0.9622,-0.9634,-0.9638,-0.9631,-0.9657,-0.9664,-0.9662,-0.9661,-0.9619,-0.9614,-0.961,0,0,0,0,0,-0.9428,-0.9421,-0.9435,-0.9441,-0.9481,-0.95,-0.9505,-0.9536,-0.9549,-0.9548,-0.9572,-0.9595,-0.9628,-0.9635,-0.964,-0.9632,-0.9664,-0.9662,-0.9661,-0.9621,-0.9615,-0.961,0,0,0,0,0,0,-0.9381,-0.9426,-0.9443,-0.9448,-0.947,-0.9508,-0.9507,-0.9528,-0.9546,-0.955,-0.9586,-0.9594,-0.9599,-0.9617,-0.9623,-0.9629,-0.9649,-0.9648,-0.9617,-0.9612,-0.9607,-0.9603,-0.9658,0,0,0,0,0,-0.9371,-0.9383,-0.9422,-0.9423,-0.9433,-0.9468,-0.9477,-0.9499,-0.9523,-0.9532,-0.9558,-0.958,-0.9595,-0.9605,-0.9621,-0.9622,-0.963,-0.9619,-0.9615,-0.9611,-0.961,-0.9612,-0.9607,-0.9654,-0.9654,-0.9654,0,0,-0.9351,-0.9377,-0.9383,-0.9414,-0.9433,-0.9445,-0.9475,-0.9486,-0.9495,-0.9534,-0.9545,-0.9564,-0.9591,-0.9596,-0.96,-0.9611,-0.9599,-0.9609,-0.9605,-0.9606,-0.9609,-0.9605,-0.9601,-0.9653,-0.9653,-0.9654,0,0,-0.9321,-0.9341,-0.9345,-0.9364,-0.9393,-0.9416,-0.9417,-0.9452,-0.9467,-0.9478,-0.9508,-0.9519,-0.9545,-0.9563,-0.9575,-0.9552,-0.9574,-0.9556,-0.9532,-0.9534,-0.953,-0.9527,-0.9519,-0.9515,-0.9555,-0.9555,-0.9555,0,-0.9292,-0.931,-0.9343,-0.9352,-0.9365,-0.9402,-0.9405,-0.9422,-0.9454,-0.9462,-0.9475,-0.9508,-0.9529,-0.9539,-0.9533,-0.9542,-0.9544,-0.9552,-0.9528,-0.9525,-0.9523,-0.9515,-0.9512,-0.9553,-0.9553,-0.9553,-0.9553,0,-0.9274,-0.9286,-0.9285,-0.9316,-0.9329,-0.9335,-0.9369,-0.9378,-0.9398,-0.942,-0.9432,-0.9458,-0.948,-0.9485,-0.9504,-0.9498,-0.9504,-0.9521,-0.9543,-0.9516,-0.9509,-0.9507,-0.9549,-0.955,-0.9551,-0.9552,0,0,-0.9215,-0.9265,-0.9264,-0.9278,-0.9313,-0.9324,-0.9331,-0.9353,-0.936,-0.9382,-0.9389,-0.941,-0.9427,-0.9442,-0.9464,-0.9465,-0.9445,-0.9483,-0.9484,-0.9475,-0.9439,-0.9425,-0.9421,-0.946,-0.9459,-0.9459,-0.9437,0,-0.919,-0.9206,-0.9236,-0.9243,-0.9254,-0.9289,-0.9296,-0.9318,-0.9339,-0.9352,-0.9375,-0.939,-0.9411,-0.942,-0.9422,-0.9447,-0.9438,-0.9449,-0.9467,-0.9467,-0.9459,-0.9418,-0.9404,-0.9381,-0.9435,-0.9434,-0.9434,0,-0.9163,-0.9183,-0.9191,-0.9225,-0.9231,-0.9237,-0.9259,-0.9271,-0.9297,-0.9312,-0.9328,-0.9353,-0.9363,-0.9382,-0.9396,-0.9403,-0.9412,-0.9425,-0.9425,-0.9428,-0.9449,-0.942,-0.9375,-0.9372,-0.943,-0.943,-0.9431,0,-0.912,-0.9148,-0.9157,-0.9168,-0.9208,-0.9211,-0.9228,-0.9255,-0.9266,-0.9286,-0.9294,-0.9315,-0.9326,-0.9341,-0.9371,-0.9382,-0.9382,-0.9404,-0.9394,-0.9394,-0.9393,-0.9392,-0.9349,-0.9398,-0.9398,-0.9399,-0.9399,0,-0.9089,-0.9092,-0.9138,-0.9143,-0.9147,-0.9182,-0.9185,-0.9206,-0.9229,-0.9238,-0.927,-0.9278,-0.9317,-0.9329,-0.9352,-0.936,-0.9365,-0.9378,-0.9384,-0.9375,-0.9373,-0.9381,-0.9384,-0.9398,-0.9398,-0.9398,-0.9398,0,-0.9041,-0.9072,-0.9083,-0.9121,-0.913,-0.9132,-0.9164,-0.917,-0.9193,-0.9204,-0.9209,-0.9245,-0.9261,-0.9292,-0.9318,-0.9333,-0.9336,-0.9347,-0.9327,-0.9331,-0.932,-0.9321,-0.928,-0.9277,-0.9328,-0.9328,-0.9327,0,-0.902,-0.9023,-0.9061,-0.9069,-0.9085,-0.9099,-0.9111,-0.9145,-0.9156,-0.9185,-0.9188,-0.9207,-0.9224,-0.9249,-0.9277,-0.9296,-0.9308,-0.9292,-0.9311,-0.9302,-0.9308,-0.9307,-0.9307,-0.9288,-0.9287,-0.9287,-0.9286,0,-0.8978,-0.8993,-0.9009,-0.903,-0.9044,-0.9062,-0.9082,-0.9087,-0.9126,-0.9137,-0.9154,-0.9167,-0.9193,-0.9212,-0.9235,-0.9253,-0.9276,-0.928,-0.9279,-0.927,-0.9258,-0.9265,-0.9316,-0.9281,-0.9281,-0.9282,-0.9282,-0.9282,-0.8943,-0.8948,-0.8975,-0.8992,-0.901,-0.9028,-0.9036,-0.906,-0.9075,-0.9099,-0.9118,-0.9133,-0.9159,-0.9193,-0.9209,-0.9222,-0.9233,-0.9232,-0.9231,-0.923,-0.9227,-0.9256,-0.9227,-0.9227,-0.9227,-0.9227,-0.9227,0,-0.8903,-0.8922,-0.8938,-0.8965,-0.8978,-0.8998,-0.9022,-0.9031,-0.9045,-0.9067,-0.9083,-0.9103,-0.9121,-0.9151,-0.9171,-0.9176,-0.9187,-0.918,-0.918,-0.9183,-0.9216,-0.9215,-0.9171,-0.9171,-0.9171,-0.9171,-0.9171,-0.9171,-0.8884,-0.8893,-0.8911,-0.8929,-0.8949,-0.8965,-0.8976,-0.8993,-0.9011,-0.9031,-0.9047,-0.9066,-0.9091,-0.9114,-0.9131,-0.9139,-0.9145,-0.9135,-0.9146,-0.9176,-0.9181,-0.9186,-0.9185,-0.9136,-0.9136,-0.9113,-0.9113,-0.9113]},{"header":{"parameterUnit":"m.s-1","parameterCategory":1,"la1":30.2991,"la2":30.254,"lo1":-89.0895,"lo2":-89.0444,"dy":0.0017,"dx":0.0017,"nx":28,"ny":28,"refTime":"2024-05-15T21:00:00:Z","depth":0,"parameterNumber":3,"parameterNumberName":"V-component_of_WINDS"},"data":[0,0,0,0,0,0,0,0,0,0,0,0,0,0,0,0,0,0,0,0,0,0,0,0,0,0,0,0,0,0,0,0,0,0,0,0,0,0,0,0,0,0,0,0,0,0,0,0,0,0,0,0,0,0,0,0,0,0,7.484,7.4839,0,7.4834,7.4834,7.4834,7.4736,7.4734,7.4731,7.4729,7.4723,7.4725,7.4727,0,0,0,0,0,0,0,0,0,0,0,0,0,7.4765,7.4767,7.484,7.4839,7.4839,7.4834,7.4834,7.4834,7.4737,7.4734,7.4731,7.4728,7.4722,7.4725,7.4727,0,0,0,0,0,0,0,0,0,0,0,0,0,7.4782,7.4768,7.484,7.479,7.4786,7.4834,7.4834,7.4834,7.4737,7.4734,7.473,7.4727,7.4721,7.4724,7.4728,7.4822,0,0,7.4737,7.4739,0,0,0,0,0,0,0,0,7.4782,7.4785,7.4798,7.4794,7.4789,7.4782,7.4805,7.483,7.4738,7.4756,7.4729,7.4725,7.4745,7.4746,7.4754,7.4822,7.4821,7.4738,7.474,7.4741,7.4742,0,0,0,0,0,0,0,7.478,7.4785,7.4837,7.4798,7.4793,7.4768,7.4767,7.4809,7.4772,7.4754,7.4747,7.4748,7.4742,7.4751,7.4753,7.4821,7.4738,7.474,7.4742,7.4744,7.4966,7.497,0,0,0,0,0,0,7.4786,7.4785,7.4837,7.4837,7.4776,7.4773,7.4771,7.4788,7.4771,7.4765,7.4751,7.4743,7.4747,7.4749,7.4752,7.4861,7.4741,7.4744,7.4746,7.4962,7.4967,7.4972,0,0,0,0,0,0,7.4785,7.4792,7.4838,7.4809,7.4813,7.4778,7.4798,7.479,7.4798,7.4768,7.4761,7.4766,7.4744,7.4748,7.4805,7.4859,7.4745,7.4748,7.4958,7.4964,7.4969,7.508,0,0,0,0,0,0,7.4783,7.4792,7.4828,7.481,7.4815,7.4892,7.4801,7.4792,7.4804,7.4794,7.4781,7.4775,7.4741,7.4801,7.4809,7.4862,7.4751,7.4953,7.496,7.4967,7.5072,7.5089,7.5105,0,0,0,0,0,7.4781,7.4859,7.483,7.4837,7.4859,7.4895,7.4897,7.4857,7.4809,7.4844,7.4825,7.4776,7.4853,7.4808,7.4815,7.4871,7.4949,7.4958,7.4967,7.5064,7.5086,7.5104,0,0,0,0,0,0,7.4883,7.4856,7.4823,7.4898,7.49,7.4878,7.4922,7.4881,7.4896,7.4886,7.4835,7.4833,7.4898,7.489,7.4841,7.4961,7.4892,7.4903,7.4964,7.4984,7.5,7.5,7.4754,0,0,0,0,0,7.4915,7.4947,7.4921,7.499,7.4992,7.4957,7.4971,7.494,7.4939,7.4939,7.4924,7.4925,7.4949,7.4966,7.4987,7.507,7.5066,7.5112,7.5129,7.5142,7.5152,7.5195,7.5215,7.5001,7.5001,7.5001,0,0,7.498,7.4969,7.4992,7.501,7.5007,7.5041,7.4958,7.4997,7.5022,7.4945,7.4998,7.4988,7.4985,7.5056,7.5087,7.5052,7.521,7.5154,7.5165,7.5167,7.5206,7.5227,7.5245,7.5007,7.5006,7.5005,0,0,7.5115,7.5111,7.5167,7.5166,7.5163,7.5139,7.5153,7.5138,7.5128,7.5181,7.5124,7.5153,7.5195,7.5196,7.5202,7.5338,7.5293,7.5346,7.5432,7.5475,7.5491,7.5506,7.5554,7.5572,7.5356,7.5357,7.5357,0,7.5196,7.5245,7.5201,7.5244,7.5253,7.5186,7.5242,7.5244,7.5248,7.5256,7.5216,7.5269,7.5262,7.5332,7.5366,7.5373,7.5387,7.5347,7.5493,7.5507,7.552,7.5565,7.5583,7.5363,7.5362,7.5362,7.5361,0,7.5344,7.5379,7.5425,7.5431,7.5445,7.5495,7.5458,7.5478,7.5446,7.5427,7.5482,7.5472,7.5489,7.5504,7.5473,7.5569,7.5548,7.5502,7.5431,7.5547,7.5589,7.5606,7.5372,7.537,7.5368,7.5367,0,0,7.5543,7.5524,7.5542,7.5543,7.5536,7.5561,7.5608,7.5625,7.5643,7.5649,7.5686,7.5724,7.5681,7.5688,7.5657,7.5695,7.5802,7.5643,7.5642,7.5673,7.5908,7.5942,7.5963,7.5773,7.5776,7.5779,7.5908,0,7.5673,7.5751,7.5713,7.5796,7.5828,7.5764,7.5805,7.5804,7.5788,7.5812,7.5793,7.5821,7.5762,7.5766,7.5801,7.5782,7.5849,7.5772,7.5807,7.5809,7.5808,7.5985,7.6021,7.6143,7.5924,7.5927,7.5929,0,7.5835,7.5847,7.5934,7.592,7.5931,7.5969,7.5981,7.6005,7.6003,7.5988,7.5997,7.5956,7.6001,7.5932,7.5993,7.5941,7.5953,7.5947,7.595,7.5951,7.5875,7.599,7.6181,7.62,7.5954,7.5952,7.595,0,7.597,7.6009,7.6065,7.6068,7.6054,7.6082,7.6077,7.6071,7.6084,7.6095,7.6103,7.612,7.6129,7.6142,7.6107,7.6061,7.6172,7.6101,7.6161,7.6162,7.6186,7.6185,7.6382,7.6196,7.6196,7.6195,7.6195,0,7.6119,7.6174,7.6125,7.616,7.622,7.6176,7.6236,7.6224,7.622,7.6251,7.6198,7.6228,7.6181,7.6206,7.618,7.6233,7.6238,7.6227,7.6219,7.6231,7.6233,7.6238,7.6228,7.62,7.6199,7.6198,7.6197,0,7.628,7.625,7.6307,7.6289,7.6286,7.633,7.6315,7.6346,7.6326,7.6366,7.6373,7.6341,7.6368,7.6335,7.636,7.6342,7.6415,7.6395,7.6416,7.6409,7.6471,7.6466,7.6677,7.6703,7.6502,7.6504,7.6505,0,7.6376,7.6417,7.6403,7.6421,7.6419,7.6447,7.646,7.6419,7.6434,7.6435,7.6466,7.6489,7.6505,7.6552,7.6531,7.655,7.6529,7.6602,7.6531,7.6543,7.6529,7.6527,7.6531,7.6616,7.6619,7.6621,7.6622,0,7.655,7.6533,7.6554,7.657,7.6587,7.6597,7.6603,7.662,7.6577,7.6597,7.6625,7.6637,7.6662,7.6686,7.6699,7.6693,7.6651,7.6645,7.666,7.6672,7.6682,7.6677,7.6454,7.664,7.6638,7.6637,7.6636,7.6635,7.6681,7.6714,7.671,7.6734,7.6735,7.6742,7.6771,7.6754,7.6776,7.6794,7.6768,7.6802,7.6799,7.6812,7.6812,7.6838,7.6807,7.6828,7.6834,7.6839,7.6848,7.6679,7.6841,7.684,7.6839,7.6839,7.6839,0,7.6851,7.6845,7.6869,7.6879,7.6899,7.6858,7.6863,7.6882,7.6913,7.6914,7.6931,7.6962,7.6985,7.6967,7.6985,7.701,7.6991,7.7016,7.7013,7.7012,7.6876,7.6861,7.7031,7.7031,7.7031,7.7031,7.7031,7.7031,7.6942,7.6996,7.6979,7.7032,7.7026,7.7059,7.7066,7.7072,7.7072,7.711,7.7129,7.7117,7.711,7.7128,7.7146,7.714,7.7149,7.7182,7.7169,7.7041,7.7022,7.7004,7.699,7.7184,7.7184,7.7303,7.7304,7.7305]}]]